| time (UTC) | temp C | wind direction | speed KPH | gust KPH | rain 1hr cm | rain 24hr cm | rain mn cm | humidity % | barometer mb |
| 20260508144520 | 12 | 259 | 1.6 | 11.3 | 0.00 | 0.00 | 0.00 | 35 | 1018.8 |
| 20260508143024 | 12 | 147 | 3.2 | 6.4 | 0.00 | 0.00 | 0.00 | 35 | 1018.9 |
| 20260508141518 | 12 | 188 | 1.6 | 4.8 | 0.00 | 0.00 | 0.00 | 38 | 1018.8 |
| 20260508140025 | 11 | 251 | 1.6 | 4.8 | 0.00 | 0.00 | 0.00 | 37 | 1018.9 |
| 20260508134522 | 10 | 263 | 1.6 | 8.0 | 0.00 | 0.00 | 0.00 | 40 | 1018.6 |
| 20260508133012 | 10 | 157 | 1.6 | 4.8 | 0.00 | 0.00 | 0.00 | 42 | 1018.4 |
| 20260508131507 | 10 | 211 | 0.0 | 3.2 | 0.00 | 0.00 | 0.00 | 42 | 1018.4 |
| 20260508130007 | 9 | 211 | 0.0 | 4.8 | 0.00 | 0.00 | 0.00 | 43 | 1018.2 |
| 20260508124507 | 8 | 211 | 0.0 | 0.0 | 0.00 | 0.00 | 0.00 | 47 | 1018.1 |
| 20260508123109 | 7 | 360 | 0.0 | 0.0 | 0.00 | 0.00 | 0.00 | 48 | 1018.1 |
| 20260508121559 | 5 | 211 | 0.0 | 0.0 | 0.00 | 0.00 | 0.00 | 64 | 1018.0 |
| 20260508120056 | 3 | 211 | 0.0 | 0.0 | 0.00 | 0.00 | 0.00 | 66 | 1017.7 |
| 20260508114554 | 2 | 211 | 0.0 | 0.0 | 0.00 | 0.03 | 0.00 | 68 | 1017.4 |
| 20260508113101 | 2 | 211 | 0.0 | 0.0 | 0.00 | 0.03 | 0.00 | 68 | 1017.1 |
| 20260508111551 | 2 | 211 | 0.0 | 0.0 | 0.00 | 0.03 | 0.00 | 68 | 1017.0 |
| 20260508110049 | 2 | 211 | 0.0 | 0.0 | 0.00 | 0.03 | 0.00 | 67 | 1016.8 |
| 20260508104547 | 2 | 211 | 0.0 | 0.0 | 0.00 | 0.08 | 0.00 | 66 | 1016.4 |
| 20260508103048 | 2 | 211 | 0.0 | 0.0 | 0.00 | 0.08 | 0.00 | 66 | 1016.0 |
| 20260508101541 | 3 | 211 | 0.0 | 0.0 | 0.00 | 0.08 | 0.00 | 64 | 1015.6 |
| 20260508100037 | 3 | 211 | 0.0 | 1.6 | 0.00 | 0.08 | 0.00 | 62 | 1015.3 |
| 20260508094551 | 3 | 211 | 0.0 | 3.2 | 0.00 | 0.08 | 0.00 | 63 | 1015.1 |
| 20260508093035 | 4 | 211 | 0.0 | 4.8 | 0.00 | 0.08 | 0.00 | 62 | 1015.0 |
| 20260508091535 | 5 | 234 | 0.0 | 3.2 | 0.00 | 0.08 | 0.00 | 59 | 1015.0 |
| 20260508090027 | 5 | 272 | 1.6 | 11.3 | 0.00 | 0.08 | 0.00 | 57 | 1014.8 |
| 20260508084524 | 6 | 257 | 3.2 | 9.7 | 0.00 | 0.08 | 0.00 | 57 | 1015.0 |
| 20260508083022 | 6 | 326 | 3.2 | 11.3 | 0.00 | 0.08 | 0.00 | 57 | 1014.8 |
| 20260508081549 | 6 | 266 | 1.6 | 14.5 | 0.00 | 0.08 | 0.00 | 58 | 1014.8 |
| 20260508080021 | 6 | 208 | 3.2 | 11.3 | 0.00 | 0.08 | 0.00 | 59 | 1014.4 |
| 20260508074515 | 6 | 251 | 3.2 | 19.3 | 0.00 | 0.10 | 0.00 | 59 | 1014.3 |
| 20260508073014 | 6 | 253 | 3.2 | 12.9 | 0.00 | 0.10 | 0.00 | 59 | 1014.0 |
| 20260508071526 | 6 | 245 | 4.8 | 11.3 | 0.00 | 0.10 | 0.00 | 60 | 1013.8 |
| 20260508070008 | 6 | 292 | 8.0 | 12.9 | 0.00 | 0.10 | 0.00 | 61 | 1013.7 |
| 20260508064510 | 6 | 236 | 4.8 | 14.5 | 0.00 | 0.10 | 0.00 | 62 | 1013.9 |
| 20260508063014 | 7 | 249 | 4.8 | 16.1 | 0.00 | 0.10 | 0.00 | 64 | 1013.8 |
| 20260508061601 | 7 | 224 | 3.2 | 17.7 | 0.00 | 0.10 | 0.00 | 64 | 1013.8 |
| 20260508060105 | 7 | 258 | 3.2 | 12.9 | 0.00 | 0.10 | 0.00 | 64 | 1013.9 |
| 20260508054557 | 7 | 265 | 3.2 | 16.1 | 0.00 | 0.10 | 0.00 | 66 | 1014.1 |
| 20260508053058 | 7 | 269 | 3.2 | 14.5 | 0.00 | 0.10 | 0.00 | 66 | 1014.1 |
| 20260508051555 | 7 | 264 | 6.4 | 12.9 | 0.00 | 0.10 | 0.00 | 65 | 1014.0 |
| 20260508050050 | 7 | 254 | 3.2 | 11.3 | 0.00 | 0.10 | 0.00 | 65 | 1013.9 |
| 20260508044548 | 7 | 306 | 4.8 | 17.7 | 0.00 | 0.10 | 0.00 | 65 | 1013.5 |
| 20260508043048 | 7 | 235 | 6.4 | 16.1 | 0.00 | 0.10 | 0.00 | 65 | 1013.2 |
| 20260508041544 | 7 | 251 | 4.8 | 16.1 | 0.00 | 0.10 | 0.00 | 65 | 1013.3 |
| 20260508040046 | 7 | 264 | 3.2 | 16.1 | 0.00 | 0.10 | 0.00 | 66 | 1013.1 |
| 20260508034539 | 7 | 188 | 3.2 | 12.9 | 0.00 | 0.10 | 0.10 | 66 | 1013.2 |
| 20260508033036 | 7 | 267 | 4.8 | 12.9 | 0.00 | 0.10 | 0.10 | 66 | 1013.3 |
| 20260508031536 | 7 | 248 | 3.2 | 12.9 | 0.00 | 0.10 | 0.10 | 65 | 1013.4 |
| 20260508030034 | 8 | 269 | 3.2 | 14.5 | 0.00 | 0.10 | 0.10 | 64 | 1013.4 |
| 20260508024545 | 8 | 246 | 4.8 | 14.5 | 0.00 | 0.18 | 0.10 | 63 | 1013.2 |
| 20260508023032 | 8 | 264 | 4.8 | 12.9 | 0.00 | 0.18 | 0.10 | 64 | 1013.4 |
| 20260508021529 | 7 | 259 | 4.8 | 9.7 | 0.00 | 0.18 | 0.10 | 64 | 1013.3 |
| 20260508020028 | 8 | 278 | 3.2 | 8.0 | 0.00 | 0.18 | 0.10 | 64 | 1012.9 |
| 20260508014529 | 8 | 250 | 3.2 | 8.0 | 0.00 | 0.20 | 0.10 | 63 | 1012.7 |
| 20260508013024 | 8 | 279 | 1.6 | 8.0 | 0.00 | 0.20 | 0.10 | 63 | 1012.2 |
| 20260508011525 | 8 | 281 | 3.2 | 11.3 | 0.00 | 0.20 | 0.10 | 63 | 1012.0 |
| 20260508010031 | 8 | 271 | 1.6 | 6.4 | 0.00 | 0.20 | 0.10 | 62 | 1011.5 |
| 20260508004518 | 8 | 265 | 1.6 | 16.1 | 0.00 | 0.20 | 0.10 | 61 | 1011.3 |
| 20260508003016 | 8 | 254 | 4.8 | 14.5 | 0.00 | 0.20 | 0.10 | 60 | 1011.1 |
| 20260508001515 | 9 | 20 | 6.4 | 17.7 | 0.00 | 0.20 | 0.10 | 59 | 1011.1 |
| 20260508000012 | 9 | 360 | 6.4 | 27.4 | 0.00 | 0.20 | 0.10 | 58 | 1010.8 |
| 20260507234514 | 10 | 280 | 6.4 | 25.7 | 0.00 | 0.20 | 0.10 | 56 | 1010.7 |
| 20260507233020 | 10 | 285 | 4.8 | 19.3 | 0.00 | 0.20 | 0.10 | 56 | 1010.7 |
| 20260507231503 | 11 | 281 | 6.4 | 22.5 | 0.00 | 0.20 | 0.10 | 57 | 1010.8 |
| 20260507230004 | 11 | 96 | 9.7 | 33.8 | 0.00 | 0.20 | 0.10 | 57 | 1010.5 |
| 20260507224502 | 11 | 288 | 8.0 | 25.7 | 0.00 | 0.20 | 0.10 | 58 | 1010.4 |
| 20260507223002 | 11 | 283 | 8.0 | 22.5 | 0.00 | 0.20 | 0.10 | 58 | 1010.1 |
| 20260507221600 | 12 | 271 | 6.4 | 22.5 | 0.00 | 0.20 | 0.10 | 59 | 1009.8 |
| 20260507220100 | 12 | 312 | 8.0 | 17.7 | 0.00 | 0.20 | 0.10 | 60 | 1009.8 |
| 20260507214607 | 10 | 245 | 3.2 | 20.9 | 0.00 | 0.20 | 0.10 | 65 | 1009.9 |
| 20260507213057 | 11 | 28 | 4.8 | 17.7 | 0.00 | 0.20 | 0.10 | 63 | 1009.7 |
| 20260507211551 | 13 | 271 | 8.0 | 17.7 | 0.00 | 0.20 | 0.10 | 59 | 1009.3 |
| 20260507210058 | 16 | 263 | 8.0 | 35.4 | 0.00 | 0.20 | 0.10 | 55 | 1008.8 |
| 20260507204549 | 16 | 260 | 11.3 | 32.2 | 0.00 | 0.20 | 0.10 | 51 | 1008.5 |
| 20260507203103 | 17 | 247 | 6.4 | 17.7 | 0.00 | 0.20 | 0.10 | 54 | 1008.4 |
| 20260507201556 | 17 | 221 | 6.4 | 14.5 | 0.00 | 0.20 | 0.10 | 53 | 1008.3 |
| 20260507200103 | 17 | 262 | 8.0 | 24.1 | 0.00 | 0.20 | 0.10 | 53 | 1008.5 |
| 20260507194545 | 17 | 327 | 12.9 | 27.4 | 0.00 | 0.20 | 0.10 | 53 | 1008.6 |
| 20260507193047 | 18 | 241 | 8.0 | 30.6 | 0.00 | 0.20 | 0.10 | 50 | 1008.8 |
| 20260507191541 | 18 | 246 | 6.4 | 17.7 | 0.00 | 0.20 | 0.10 | 52 | 1008.5 |
| 20260507190040 | 19 | 182 | 4.8 | 19.3 | 0.00 | 0.20 | 0.10 | 50 | 1009.0 |
| 20260507184543 | 19 | 252 | 8.0 | 20.9 | 0.00 | 0.20 | 0.10 | 51 | 1008.9 |
| 20260507183038 | 19 | 284 | 11.3 | 20.9 | 0.00 | 0.20 | 0.10 | 51 | 1008.9 |
| 20260507181537 | 20 | 304 | 6.4 | 14.5 | 0.00 | 0.20 | 0.10 | 51 | 1008.8 |
| 20260507180039 | 20 | 248 | 8.0 | 20.9 | 0.00 | 0.20 | 0.10 | 49 | 1008.6 |
| 20260507174538 | 20 | 308 | 8.0 | 20.9 | 0.00 | 0.20 | 0.10 | 52 | 1008.7 |
| 20260507173036 | 20 | 254 | 6.4 | 16.1 | 0.00 | 0.20 | 0.10 | 51 | 1008.7 |
| 20260507171534 | 20 | 265 | 8.0 | 16.1 | 0.00 | 0.20 | 0.10 | 51 | 1008.7 |
| 20260507170033 | 20 | 347 | 3.2 | 14.5 | 0.00 | 0.20 | 0.10 | 49 | 1008.6 |
| 20260507164528 | 19 | 271 | 4.8 | 11.3 | 0.00 | 0.20 | 0.10 | 53 | 1008.9 |
| 20260507163025 | 18 | 301 | 3.2 | 6.4 | 0.00 | 0.20 | 0.10 | 58 | 1009.0 |
| 20260507161523 | 17 | 321 | 1.6 | 4.8 | 0.00 | 0.20 | 0.10 | 61 | 1009.3 |
| 20260507160022 | 17 | 328 | 0.0 | 3.2 | 0.00 | 0.20 | 0.10 | 61 | 1009.1 |
| 20260507154519 | 17 | 66 | 0.0 | 4.8 | 0.00 | 0.20 | 0.10 | 64 | 1009.0 |
| 20260507153019 | 16 | 294 | 0.0 | 4.8 | 0.00 | 0.20 | 0.10 | 65 | 1009.3 |
| 20260507151518 | 17 | 297 | 0.0 | 6.4 | 0.00 | 0.20 | 0.10 | 61 | 1009.1 |
| 20260507150023 | 17 | 293 | 0.0 | 4.8 | 0.00 | 0.20 | 0.10 | 62 | 1009.2 |